Terminal Aerodrome Forecast
Issued by NWS Omaha/Valley, NE

Home | Current Version | Previous Version | Text Only | Print | Product List | Glossary On
Versions: 1 2 3 4 5 6 7 8 9 10 11 12 13 14 15 16 17 18 19 20 21 22 23 24 25 26 27 28 29 30 31 32 33 34 35 36 37 38 39 40
000
FTUS43 KOAX 191720
TAFOFK
TAF
KOFK 191720Z 1918/2018 33024G32KT P6SM OVC070
      TEMPO 1918/1920 BKN028
     FM200100 31014KT P6SM SCT070
     FM201400 31024G34KT P6SM SCT100=

USA.gov is the U.S. government's official web portal to all federal, state and local government web resources and services.